Weather History for KSTP - March, 2013

Change the Weather History Date:

Thursday, March 14, 2013

  Actual Average Record
Temperature  
Mean Temperature 30 °F -  
Max Temperature 39 °F 35 °F 73 °F (2012)
Min Temperature 23 °F 19 °F 3 °F (1997)
Degree Days  
Heating Degree Days 35    
Moisture  
Dew Point 22 °F    
Average Humidity 79    
Maximum Humidity 93    
Minimum Humidity 64    
Precipitation  
Precipitation 0.02 in - - ()
Sea Level Pressure  
Sea Level Pressure 30.16 in    
Wind  
Wind Speed 8 mph (SE)    
Max Wind Speed 13 mph    
Max Gust Speed -    
Visibility 5 miles    
Events Snow    
Averages and records for this station are not official NWS values.
T = Trace of Precipitation, MM = Missing Value Source: NWS Daily Summary

Daily Weather History Graph

Daily Weather History Graph

Search for Another Location

Airport or City:

Trip Planner

Search our weather history database for the weather conditions in past years. The results will help you decide how hot, cold, wet, or windy it might be!

Date:

Astronomy

Mar. 14, 2013 Rise Set
Actual Time 7:26 AM CDT 7:17 PM CDT
Civil Twilight 6:56 AM CDT 7:46 PM CDT
Nautical Twilight 6:22 AM CDT 8:20 PM CDT
Astronomical Twilight 5:48 AM CDT 8:55 PM CDT
Moon 8:31 AM CDT (3/14) 10:45 PM CDT (3/14)
Length of Visible Light 12h 49m
Length of Day
11h 51m
Waxing Crescent, 9% of the Moon is Illuminated
Mar 14
Waxing Crescent
Mar 19
First Quarter
Mar 27
Full
Apr 2
Last Quarter
Apr 10
New

Hourly Weather History & Observations

Time (CDT) Temp. Windchill Dew Point Humidity Pressure Visibility Wind Dir Wind Speed Gust Speed Precip Events Conditions
12:53 AM 24.1 °F 14.4 °F 17.1 °F 75% 30.28 in 10.0 mi SSE 9.2 mph - N/A   Overcast
1:53 AM 24.1 °F 17.0 °F 18.0 °F 77% 30.27 in 10.0 mi SE 5.8 mph - N/A   Overcast
2:53 AM 25.0 °F 18.1 °F 18.0 °F 75% 30.26 in 10.0 mi SSE 5.8 mph - N/A   Overcast
3:53 AM 25.0 °F 17.1 °F 18.0 °F 75% 30.25 in 8.0 mi SSE 6.9 mph - N/A   Overcast
4:23 AM 24.8 °F 15.3 °F 17.6 °F 74% 30.20 in 2.5 mi SSE 9.2 mph - 0.00 in Snow Light Snow
4:27 AM 24.8 °F 14.6 °F 17.6 °F 74% 30.21 in 1.2 mi SSE 10.4 mph - 0.00 in Snow Light Snow
4:37 AM 24.8 °F 16.1 °F 19.4 °F 80% 30.20 in 2.0 mi ESE 8.1 mph - 0.00 in Snow Light Snow
4:43 AM 24.8 °F 15.3 °F 19.4 °F 80% 30.19 in 4.0 mi ESE 9.2 mph - 0.00 in Snow Light Snow
4:53 AM 24.1 °F 14.4 °F 19.0 °F 81% 30.20 in 3.0 mi ESE 9.2 mph - 0.00 in Snow Light Snow
5:39 AM 24.8 °F 15.3 °F 19.4 °F 80% 30.19 in 1.8 mi SE 9.2 mph - 0.00 in Snow Light Snow
5:47 AM 24.8 °F 14.0 °F 19.4 °F 80% 30.18 in 1.0 mi SE 11.5 mph - 0.00 in Snow Light Snow
5:53 AM 24.1 °F 14.4 °F 19.9 °F 84% 30.20 in 1.0 mi ESE 9.2 mph - 0.00 in Snow Light Snow
5:59 AM 23.0 °F 12.4 °F 19.4 °F 86% 30.17 in 0.8 mi SE 10.4 mph - 0.00 in Snow Light Snow
6:28 AM 23.0 °F 13.9 °F 21.2 °F 93% 30.16 in 0.8 mi SE 8.1 mph - 0.00 in Snow Light Snow
6:45 AM 23.0 °F 11.1 °F 21.2 °F 93% 30.14 in 1.0 mi SSE 12.7 mph - 0.01 in Snow Light Snow
6:53 AM 24.1 °F 13.1 °F 21.0 °F 88% 30.17 in 1.0 mi SE 11.5 mph - 0.01 in Snow Light Snow
7:00 AM 24.8 °F 13.4 °F 21.2 °F 86% 30.14 in 0.8 mi SE 12.7 mph - 0.00 in Snow Light Snow
7:11 AM 24.8 °F 14.0 °F 19.4 °F 80% 30.13 in 1.2 mi SE 11.5 mph - 0.01 in Snow Light Snow
7:28 AM 24.8 °F 15.3 °F 21.2 °F 86% 30.12 in 1.0 mi ESE 9.2 mph - 0.01 in Snow Light Snow
7:31 AM 24.8 °F 15.3 °F 21.2 °F 86% 30.12 in 1.2 mi ESE 9.2 mph - 0.01 in Snow Light Snow
7:53 AM 25.0 °F 17.1 °F 21.0 °F 85% 30.16 in 3.0 mi SE 6.9 mph - 0.01 in   Overcast
8:43 AM 24.8 °F 14.6 °F 21.2 °F 86% 30.14 in 6.0 mi SE 10.4 mph - N/A   Overcast
8:53 AM 26.1 °F 16.2 °F 21.9 °F 84% 30.17 in 6.0 mi SE 10.4 mph - N/A   Overcast
9:20 AM 26.6 °F 17.5 °F 21.2 °F 80% 30.14 in 7.0 mi SE 9.2 mph - N/A   Overcast
9:46 AM 26.6 °F 19.1 °F 21.2 °F 80% 30.15 in 7.0 mi SE 6.9 mph - N/A   Overcast
9:53 AM 27.0 °F 19.5 °F 21.9 °F 81% 30.19 in 7.0 mi SSE 6.9 mph - N/A   Overcast
10:13 AM 28.4 °F 18.5 °F 23.0 °F 80% 30.14 in 7.0 mi SE 11.5 mph - N/A   Mostly Cloudy
10:53 AM 28.9 °F 18.6 °F 24.1 °F 82% 30.16 in 8.0 mi SSE 12.7 mph - N/A   Partly Cloudy
11:53 AM 30.0 °F 24.1 °F 24.1 °F 79% 30.16 in 8.0 mi SE 5.8 mph - N/A   Clear
12:53 PM 33.1 °F 27.7 °F 25.0 °F 72% 30.16 in 10.0 mi SE 5.8 mph - N/A   Partly Cloudy
1:53 PM 34.0 °F 27.2 °F 25.0 °F 70% 30.14 in 9.0 mi ESE 8.1 mph - N/A   Clear
2:53 PM 36.0 °F 33.3 °F 25.0 °F 64% 30.13 in 9.0 mi Variable 3.5 mph - N/A   Clear
3:53 PM 36.0 °F 32.1 °F 26.1 °F 67% 30.13 in 9.0 mi SE 4.6 mph - N/A   Clear
4:53 PM 37.0 °F 31.0 °F 27.0 °F 67% 30.14 in 8.0 mi SE 8.1 mph - N/A   Clear
5:53 PM 37.0 °F 31.0 °F 26.1 °F 65% 30.11 in 8.0 mi SSE 8.1 mph - N/A   Clear
6:53 PM 35.1 °F 30.1 °F 26.1 °F 70% 30.11 in 9.0 mi South 5.8 mph - N/A   Haze
7:53 PM 33.8 °F 28.6 °F 24.8 °F 70% 30.08 in 9.0 mi South 5.8 mph - N/A   Clear
8:53 PM 32.0 °F 25.6 °F 25.0 °F 75% 30.09 in 9.0 mi South 6.9 mph - N/A   Clear
9:53 PM 32.0 °F 26.4 °F 25.0 °F 75% 30.05 in 7.0 mi SSE 5.8 mph - N/A   Clear
10:53 PM 30.0 °F - 24.1 °F 79% 30.06 in 6.0 mi Calm Calm - N/A   Haze
11:53 PM 28.0 °F - 24.1 °F 85% 30.06 in 5.0 mi Calm Calm - N/A   Clear